Location: Anuling
(14.1239°N, 120.8922°E)
Time: 00:55:13
(UTC+00:00)

GPS 2-17 Rocket1 - Pass Details

Date: 17 April 2026
Orbit: 544 x 613 km, 20.3° (Epoch: 19 May)

Event Time Altitude Azimuth Distance (km) Brightness Sun altitude
Rises 12:37:49 0° 277° (W) 2,858 7.4 -35.0°
Reaches altitude 10° 12:40:15 10° 270° (W) 1,954 6.3 -35.5°
Enters shadow 12:41:09 15° 266° (W) 1,639 5.8 -35.7°
